This is the latest recevied weather packets stored in our database for station/object 2E0RGX-13. If no packets are shown the sender has not sent any weather packets the latest 10 day(s).
| Time | Temp. | Humidity | Pressure | Rain* | Wind** | Luminosity | Snow |
|---|---|---|---|---|---|---|---|
| 1777974740 | 13.89° C | 65% | 1009.8 hPa | 0 mm | - | 2 W/m² | - |
| 1777974437 | 13.89° C | 65% | 1009.8 hPa | 0 mm | - | 3 W/m² | - |
| 1777974133 | 13.89° C | 66% | 1009.6 hPa | 0 mm | - | 2 W/m² | - |
| 1777973829 | 13.33° C | 68% | 1009.6 hPa | 0 mm | - | 3 W/m² | - |
| 1777973525 | 13.33° C | 68% | 1009.6 hPa | 0 mm | - | 4 W/m² | - |
| 1777973221 | 13.33° C | 70% | 1009.8 hPa | 0 mm | - | 3 W/m² | - |
| 1777972917 | 12.78° C | 72% | 1010 hPa | 0 mm | - | 2 W/m² | - |
| 1777972613 | 13.33° C | 72% | 1009.8 hPa | 0 mm | - | 2 W/m² | - |
| 1777972309 | 12.78° C | 72% | 1009.9 hPa | 0 mm | - | 2 W/m² | - |
| 1777972005 | 12.78° C | 73% | 1009.9 hPa | 0 mm | - | 2 W/m² | - |
| 1777971701 | 12.78° C | 73% | 1009.8 hPa | 0 mm | - | 2 W/m² | - |
| 1777971397 | 12.78° C | 74% | 1010 hPa | 0 mm | - | 1 W/m² | - |
| 1777971093 | 12.22° C | 75% | 1010.1 hPa | 0 mm | - | 2 W/m² | - |
| 1777970789 | 12.22° C | 75% | 1010.1 hPa | 0 mm | - | 1 W/m² | - |
| 1777970485 | 12.78° C | 75% | 1010.1 hPa | 0 mm | - | 2 W/m² | - |
| 1777970181 | 12.22° C | 75% | 1010.2 hPa | 0 mm | - | 2 W/m² | - |
| 1777969877 | 12.22° C | 75% | 1010 hPa | 0 mm | - | 2 W/m² | - |
| 1777969573 | 12.22° C | 76% | 1010.1 hPa | 0 mm | - | 2 W/m² | - |
| 1777969269 | 12.22° C | 76% | 1009.9 hPa | 0 mm | - | 2 W/m² | - |
| 1777968965 | 12.22° C | 76% | 1010.1 hPa | 0 mm | - | 2 W/m² | - |
| 1777968661 | 12.22° C | 77% | 1010 hPa | 0 mm | - | 2 W/m² | - |
| 1777968357 | 12.22° C | 77% | 1010.1 hPa | 0 mm | - | 2 W/m² | - |
| 1777968053 | 11.67° C | 77% | 1010.1 hPa | 0 mm | - | 1 W/m² | - |
| 1777967749 | 11.67° C | 77% | 1009.7 hPa | 0 mm | - | 1 W/m² | - |
| 1777967445 | 11.67° C | 78% | 1010.1 hPa | 0 mm | - | 1 W/m² | - |
* Rain latest hour (hover to see other rain measurements)
** Current wind speed in m/s (hover to see current wind gust speed)